Wetbulb
58.64 58.25 56.57 57.39 57.32 57.21 57.14 56.84 57.09 56.84 56.67 56.34 56.05 56.05 56.16 56.26 55.89 55.38 54.82 54.32 54.24 54.29 54.54 54.27 54.33 54.99 53.97 53.76 53.11 52.36 51.56 51.43 49.44 51.15 53.32 54.63 55.39 54.60 56.02 57.21 58.52 61.49 64.15
59.09 58.39 57.69 57.57 57.37 57.18 56.96 57.06 57.12 56.95 56.90 56.72 56.57 56.67 56.43 56.29 55.77 54.85 54.28 54.54 53.87 53.47 53.78 53.62 53.64 54.42 54.11 53.50 52.65 52.27 51.76 52.27 51.29 49.92 52.72 52.95 53.76 54.83 55.81 55.84 57.63 61.95 63.47
59.45 58.84 57.89 57.27 57.33 57.28 57.21 57.45 57.33 56.99 56.86 56.98 56.63 56.57 56.29 56.48 55.26 54.56 54.11 53.64 53.41 53.33 53.31 53.15 53.29 53.01 52.03 52.08 51.91 51.60 51.90 52.18 52.13 50.90 50.97 54.22 54.14 54.07 54.97 55.75 57.17 59.77 62.28
59.59 58.96 57.90 57.82 58.01 57.92 57.97 57.56 57.33 57.21 56.54 56.45 56.47 56.55 56.56 56.00 55.04 54.32 53.91 53.43 52.74 52.78 52.89 52.70 51.95 51.35 50.87 50.91 50.87 51.17 51.31 51.22 52.19 51.96 51.43 50.83 52.62 54.11 53.69 53.50 54.70 58.26 58.40
58.35 58.41 58.26 58.63 58.63 58.20 57.98 57.75 57.23 56.69 56.50 56.69 55.98 55.96 55.82 54.64 53.42 53.29 52.61 52.01 51.06 50.76 50.77 50.50 50.76 50.95 52.19 52.75 51.54 51.48 51.26 51.14 50.89 50.03 50.39 50.84 51.00 51.24 51.66 53.81 53.46 55.77 56.66
57.93 57.84 58.77 58.31 58.19 58.02 57.73 56.82 56.16 56.12 56.10 55.72 55.27 54.97 53.40 52.43 49.13 49.01 51.18 50.31 49.44 48.83 48.41 49.28 49.69 50.46 50.68 51.22 51.65 51.85 51.63 50.43 48.84 48.12 48.43 48.32 50.28 51.76 52.40 52.20 52.73 52.56 52.74
58.49 58.58 58.25 58.35 58.29 57.95 56.49 56.14 55.88 55.15 53.94 54.01 52.95 52.02 51.68 50.94 46.34 46.05 47.08 48.99 47.98 47.81 47.78 47.79 47.75 48.68 49.79 49.62 49.43 49.78 50.30 49.96 49.99 49.82 48.07 48.57 48.78 51.73 52.63 51.43 51.82 51.72 52.23
57.43 57.72 57.82 57.78 56.33 55.86 55.78 54.89 52.98 52.44 52.37 50.92 50.06 49.83 49.25 48.99 45.47 44.40 45.22 47.77 47.14 47.14 47.25 47.25 47.28 47.52 47.94 47.43 47.33 47.21 48.06 49.04 49.89 49.93 50.49 50.54 50.75 51.14 52.05 52.59 51.97 53.04 54.15
56.13 56.70 56.99 56.59 55.60 55.15 53.89 51.71 50.04 49.48 48.72 48.59 48.59 47.91 47.44 47.76 44.28 43.50 44.74 46.63 46.12 46.34 46.62 47.48 46.84 46.47 45.09 43.57 45.65 45.11 45.74 46.63 48.21 47.41 46.89 46.37 46.11 46.67 49.92 52.68 50.55 50.00 49.29
51.74 52.94 54.60 56.00 54.23 52.18 50.07 48.58 47.78 48.26 47.67 47.07 47.15 47.41 46.35 47.16 43.73 42.88 44.02 45.44 44.71 44.68 45.51 45.10 44.32 44.33 42.93 42.26 44.44 44.23 43.24 44.82 46.13 46.53 48.42 47.65 46.93 48.48 46.35 49.36 50.63 49.41 49.11
50.34 49.86 49.39 49.18 48.80 48.66 48.07 48.62 48.31 46.91 46.84 46.16 45.55 45.44 45.32 44.90 45.01 41.97 42.18 44.25 43.47 42.99 42.59 43.11 44.53 42.74 41.80 41.32 41.52 43.33 43.05 44.37 44.42 44.82 44.96 45.89 47.89 48.97 50.59 50.21 50.33 50.87 49.85
49.41 48.34 47.69 48.09 48.66 48.15 47.03 46.37 46.00 45.49 44.60 43.74 43.19 42.67 43.05 43.52 42.46 41.91 41.22 41.17 42.83 42.43 42.27 43.25 43.98 41.82 40.67 40.49 41.09 41.54 40.91 42.02 42.83 42.60 42.67 43.22 44.42 47.17 49.45 51.74 52.42 52.55 53.11
49.68 48.12 47.76 47.22 47.43 47.16 46.74 44.95 43.64 43.23 42.73 41.93 40.89 40.60 41.05 41.63 41.79 40.94 40.67 40.43 41.17 41.79 42.75 42.59 41.56 40.84 40.46 40.82 41.08 41.00 41.03 41.71 41.54 41.10 41.49 42.51 44.22 46.46 49.09 50.85 52.29 51.87 52.30
47.40 46.78 46.87 46.90 46.41 45.98 44.82 43.85 42.84 41.77 40.87 40.39 40.26 40.12 39.73 40.00 40.60 41.31 41.19 41.45 41.13 41.30 42.19 42.55 42.39 41.70 41.32 41.66 41.95 42.33 42.78 43.11 42.40 41.37 41.67 43.22 44.69 45.29 46.05 48.78 49.54 49.78 49.44
45.91 45.22 44.94 44.38 43.92 42.84 43.25 42.00 41.44 41.68 41.52 40.89 40.49 39.64 38.86 38.93 40.55 40.23 39.86 40.75 41.46 40.97 40.71 40.34 40.31 41.34 41.98 42.88 43.34 43.75 44.04 43.78 42.74 43.19 42.72 42.68 43.22 43.89 45.04 47.28 48.95 49.80 48.56
43.32 42.19 41.74 41.66 41.45 41.08 40.84 40.63 39.01 38.94 38.76 38.26 37.78 38.81 40.04 38.73 37.96 38.13 38.37 38.36 37.98 37.93 38.57 39.03 40.03 41.72 41.96 42.63 42.96 43.23 43.98 44.12 43.72 43.51 43.17 42.92 42.36 42.67 43.48 45.25 47.44 49.10 48.09
41.78 40.71 40.26 39.73 40.07 39.64 39.35 39.18 39.16 39.46 39.22 39.06 38.20 38.03 37.90 38.03 37.95 37.78 38.31 37.88 36.81 37.32 39.47 42.05 42.83 43.49 43.82 43.93 44.25 44.32 44.05 45.28 46.05 44.56 43.41 43.00 42.93 42.99 41.85 43.49 45.24 47.17 48.68
42.06 40.20 39.75 39.70 39.25 38.63 38.95 38.77 38.46 38.19 38.57 39.73 38.94 38.53 38.70 38.16 37.94 37.87 37.65 37.68 41.95 42.23 43.19 43.11 43.06 43.06 43.04 43.01 43.19 43.23 43.48 43.75 43.92 44.62 44.83 44.03 43.21 42.85 42.48 42.55 44.03 45.87 47.85
41.14 40.92 40.23 39.54 39.01 38.70 38.70 38.66 38.35 38.45 38.71 39.24 39.69 39.46 39.09 37.84 37.73 37.62 37.88 41.34 40.88 41.80 42.61 42.29 42.36 42.24 42.33 42.74 42.88 42.86 42.71 42.40 42.44 43.15 43.73 44.58 44.03 43.14 42.46 42.98 43.52 41.46 44.78
41.22 38.47 38.24 39.30 39.00 38.68 38.50 38.34 38.25 37.89 37.87 38.20 38.44 39.28 40.42 39.25 39.15 39.75 40.93 40.94 41.30 41.49 41.46 41.19 41.53 41.79 42.32 42.25 42.05 41.90 41.09 41.09 42.17 42.75 43.25 44.34 45.27 43.93 42.83 43.03 43.64 43.68 46.83
40.87 39.35 35.05 39.11 38.87 38.36 38.18 37.85 37.95 37.65 37.91 38.05 38.12 38.80 33.85 37.00 38.69 38.14 39.43 40.51 40.65 40.44 40.68 40.86 40.76 41.34 41.74 41.66 41.05 40.57 40.05 41.00 43.53 45.57 45.27 45.22 45.47 43.72 43.97 44.20 44.29 45.02 48.93
40.72 39.57 38.53 38.71 38.63 38.57 38.24 38.53 39.53 38.24 37.27 37.21 37.78 37.84 33.94 37.97 38.23 38.85 39.48 39.93 40.17 40.50 41.02 40.73 40.87 41.06 41.12 40.98 40.34 39.41 39.23 40.80 45.78 45.50 45.27 45.27 44.88 44.61 44.65 44.43 44.72 45.33 47.59
40.45 39.59 39.11 39.32 39.59 37.75 39.00 37.34 36.25 35.86 35.95 36.35 36.36 36.01 36.78 37.59 38.18 38.17 38.61 39.13 39.18 39.78 40.53 40.83 40.70 40.65 41.06 40.76 39.95 40.23 40.47 43.89 46.31 46.92 45.77 45.27 45.15 44.83 45.15 44.67 45.70 46.46 48.07
41.11 40.49 39.84 39.86 39.76 38.34 36.31 34.96 34.90 33.45 34.82 35.39 35.44 35.76 35.90 36.87 37.38 37.37 38.05 38.26 38.61 39.54 40.09 40.58 40.65 40.29 40.26 38.95 39.37 40.34 42.68 49.32 48.19 48.37 47.81 46.80 45.72 45.64 48.82 48.91 49.37 50.03 49.18
41.25 39.78 40.38 39.43 37.62 35.60 34.69 34.59 34.30 34.48 34.63 34.62 34.88 35.08 35.57 36.16 36.36 36.33 37.03 37.39 37.98 38.85 39.43 40.19 40.65 39.96 38.92 38.17 38.54 38.47 38.19 35.16 48.16 42.94 49.72 50.21 49.51 49.35 50.17 50.04 51.76 50.90 50.06
40.73 40.30 38.00 36.31 34.82 34.00 33.88 33.99 33.70 33.69 33.43 33.70 33.81 34.34 34.66 34.80 35.54 35.65 35.67 36.67 37.50 38.62 39.36 40.14 40.40 39.69 37.80 37.74 37.46 34.40 33.98 35.70 42.59 38.43 50.95 52.62 51.85 51.67 52.64 52.17 51.32 50.50 49.97
MSLP
1007.75 1008.88 1010.10 1010.98 1011.77 1012.18 1013.33 1014.12 1014.69 1015.35 1015.99 1016.55 1016.97 1017.47 1017.97 1018.28 1018.64 1019.07 1019.39 1019.36 1019.47 1019.58 1019.42 1019.46 1019.57 1019.51 1019.38 1019.35 1019.37 1019.27 1019.20 1019.18 1018.29 1016.67 1016.89 1016.80 1016.43 1016.41 1015.80 1015.40 1014.73 1014.17 1013.60
1006.94 1008.52 1009.63 1010.61 1011.44 1011.74 1012.77 1013.90 1014.40 1014.96 1015.55 1016.04 1016.71 1017.38 1017.79 1018.14 1018.55 1018.90 1019.16 1019.19 1019.10 1019.06 1019.00 1019.24 1019.31 1019.11 1019.01 1018.86 1018.77 1018.64 1018.40 1018.29 1018.00 1016.75 1016.44 1016.53 1016.42 1016.17 1015.81 1015.31 1014.59 1013.83 1013.39
1007.02 1008.18 1009.34 1010.40 1011.02 1011.81 1012.38 1013.45 1014.15 1014.65 1015.18 1015.89 1016.54 1017.19 1017.74 1018.03 1018.36 1018.60 1018.83 1018.68 1018.59 1018.69 1018.90 1019.04 1018.99 1018.93 1018.51 1018.21 1018.14 1017.86 1017.69 1017.52 1017.27 1016.74 1015.98 1015.93 1015.97 1015.90 1015.48 1015.16 1014.57 1013.81 1013.29
1006.59 1007.70 1008.99 1009.85 1010.31 1011.18 1012.09 1013.09 1013.74 1014.31 1014.86 1015.65 1016.43 1016.92 1017.39 1017.79 1017.99 1018.03 1018.22 1018.05 1018.06 1018.45 1018.64 1018.83 1018.69 1018.47 1017.93 1017.67 1017.48 1017.24 1017.08 1016.96 1016.68 1016.24 1015.64 1015.41 1015.47 1015.50 1015.52 1014.99 1014.43 1013.93 1013.41
1006.42 1007.35 1008.39 1009.25 1009.94 1010.83 1011.97 1012.81 1013.45 1014.15 1014.77 1015.30 1016.09 1016.72 1017.02 1017.25 1017.38 1017.46 1017.61 1017.65 1017.79 1018.13 1018.31 1018.30 1018.00 1017.67 1017.47 1017.19 1016.89 1016.66 1016.67 1016.52 1016.21 1015.89 1015.35 1015.06 1015.10 1015.17 1015.06 1014.77 1014.54 1014.16 1013.64
1006.47 1006.94 1007.75 1008.63 1009.46 1010.40 1011.73 1012.81 1013.46 1013.96 1014.61 1015.17 1015.66 1016.13 1016.57 1016.83 1016.95 1016.97 1017.14 1017.34 1017.60 1017.82 1017.79 1017.60 1017.19 1017.06 1016.95 1016.61 1016.39 1016.17 1016.10 1015.93 1015.71 1015.41 1015.03 1014.94 1014.90 1014.74 1014.43 1014.46 1014.39 1014.24 1013.81
1006.31 1006.94 1007.71 1008.37 1009.22 1010.25 1011.63 1012.73 1013.36 1013.85 1014.50 1015.18 1015.81 1016.13 1016.32 1016.49 1016.59 1016.77 1016.91 1017.21 1017.39 1017.24 1017.27 1016.86 1016.52 1016.52 1016.44 1016.11 1015.78 1015.57 1015.38 1015.18 1014.99 1014.78 1014.55 1014.39 1014.23 1014.27 1014.11 1013.91 1013.95 1014.07 1014.06
1006.66 1007.24 1007.98 1008.51 1009.33 1010.33 1011.53 1012.55 1013.14 1013.78 1014.35 1014.84 1015.49 1015.91 1016.19 1016.21 1016.42 1016.81 1016.77 1016.85 1016.85 1016.75 1016.52 1016.21 1016.02 1015.95 1015.79 1015.68 1015.33 1014.99 1014.71 1014.40 1014.08 1013.99 1013.68 1013.49 1013.49 1013.53 1013.51 1013.52 1013.42 1013.41 1013.64
1006.77 1007.01 1007.61 1008.62 1009.84 1010.90 1011.53 1012.43 1013.27 1013.85 1014.34 1014.91 1015.35 1015.91 1016.25 1016.13 1016.28 1016.37 1016.50 1016.67 1016.32 1016.15 1015.90 1015.72 1015.19 1015.27 1015.02 1015.00 1014.82 1014.39 1013.94 1013.16 1012.96 1013.04 1012.94 1012.79 1012.75 1012.83 1012.93 1013.14 1013.05 1013.12 1013.12
1007.68 1008.01 1008.23 1008.70 1009.85 1010.66 1011.70 1012.48 1013.36 1013.73 1014.43 1014.97 1015.41 1015.59 1015.79 1015.84 1015.82 1016.04 1016.29 1016.19 1015.95 1015.63 1015.27 1014.69 1014.63 1014.77 1014.56 1014.35 1014.27 1013.84 1013.12 1012.48 1012.49 1012.32 1012.09 1011.99 1011.99 1011.98 1012.22 1012.55 1012.60 1012.45 1012.61
1008.60 1008.19 1008.60 1009.64 1010.53 1011.14 1012.02 1012.87 1013.31 1014.00 1014.65 1015.17 1015.19 1015.37 1015.15 1015.47 1015.63 1015.91 1015.80 1015.89 1015.62 1015.15 1014.47 1014.32 1014.27 1013.95 1013.87 1013.58 1013.39 1013.06 1012.32 1012.05 1011.87 1011.73 1011.51 1011.37 1011.13 1011.08 1011.10 1011.25 1011.43 1011.73 1011.70
1008.73 1009.81 1010.49 1011.15 1011.75 1011.97 1012.15 1013.23 1013.78 1014.08 1014.71 1014.96 1014.82 1015.17 1015.59 1015.65 1015.48 1015.51 1015.61 1015.43 1015.17 1014.86 1013.92 1014.03 1013.41 1013.02 1012.96 1012.50 1012.21 1011.76 1011.49 1011.40 1011.14 1010.85 1010.61 1010.30 1010.14 1009.83 1009.85 1010.03 1010.15 1010.37 1010.45
1010.19 1010.72 1010.65 1011.29 1012.46 1012.72 1012.60 1013.17 1013.38 1013.73 1014.31 1014.71 1015.14 1015.75 1016.15 1015.81 1015.15 1015.00 1015.31 1014.92 1014.42 1013.93 1013.55 1013.19 1012.54 1012.32 1011.78 1011.09 1010.47 1010.24 1010.27 1010.05 1009.81 1009.63 1009.17 1008.86 1008.81 1008.76 1008.89 1008.96 1009.17 1009.42 1009.67
1010.72 1010.81 1011.57 1011.71 1012.46 1012.18 1012.44 1012.87 1013.12 1013.85 1014.73 1015.30 1015.50 1015.79 1015.82 1015.50 1014.46 1014.22 1014.62 1014.08 1013.60 1013.34 1012.85 1012.02 1011.82 1011.20 1010.50 1009.87 1009.29 1008.81 1008.57 1008.36 1008.19 1007.90 1007.74 1007.73 1007.82 1007.89 1007.78 1007.81 1007.99 1008.30 1008.89
1010.57 1010.72 1011.96 1012.50 1012.97 1012.82 1012.96 1013.15 1013.09 1014.39 1014.25 1015.05 1015.53 1015.37 1015.21 1014.50 1014.22 1013.92 1013.91 1013.75 1013.14 1012.52 1012.09 1011.76 1010.85 1009.96 1009.13 1008.40 1007.76 1007.31 1007.01 1006.82 1006.66 1006.49 1006.47 1006.51 1006.55 1006.62 1006.65 1006.87 1006.89 1007.04 1007.27
1010.93 1011.72 1012.43 1012.81 1013.26 1013.15 1013.83 1013.96 1013.91 1013.85 1013.58 1014.69 1015.23 1015.10 1014.24 1014.55 1014.05 1013.20 1012.77 1013.20 1012.30 1011.83 1011.63 1010.63 1009.50 1008.61 1007.80 1007.05 1006.37 1005.86 1005.58 1005.19 1004.94 1004.87 1004.86 1005.03 1005.19 1005.36 1005.51 1005.71 1005.92 1005.69 1005.83
1011.21 1011.97 1012.32 1012.81 1013.51 1013.76 1014.09 1014.02 1013.55 1013.91 1014.10 1014.51 1014.21 1013.63 1013.74 1014.01 1012.97 1012.68 1012.57 1012.52 1011.63 1010.95 1010.29 1009.15 1008.12 1007.30 1006.52 1005.76 1005.16 1004.65 1004.00 1003.68 1003.37 1003.29 1003.24 1003.40 1003.74 1003.99 1004.43 1004.61 1004.69 1004.67 1004.67
1011.35 1011.94 1012.49 1013.22 1013.37 1013.76 1013.92 1014.38 1013.91 1014.65 1014.50 1013.79 1013.09 1013.09 1013.06 1013.03 1012.39 1012.80 1012.31 1011.43 1010.32 1009.34 1008.92 1007.99 1007.12 1006.28 1005.45 1004.83 1004.18 1003.56 1002.99 1002.64 1002.28 1001.99 1001.76 1001.84 1002.18 1002.59 1003.01 1003.25 1003.51 1003.47 1003.66
1011.99 1012.62 1012.91 1013.22 1013.42 1014.04 1014.18 1014.01 1014.15 1014.47 1014.09 1013.78 1012.79 1012.82 1012.61 1012.71 1012.78 1012.06 1011.14 1010.47 1009.62 1008.71 1007.83 1007.09 1006.20 1005.38 1004.68 1003.93 1003.23 1002.57 1002.02 1001.48 1001.13 1000.84 1000.57 1000.45 1000.61 1001.16 1001.48 1001.94 1002.30 1002.63 1002.46
1012.28 1012.71 1012.99 1013.32 1013.79 1013.95 1014.23 1013.94 1014.21 1013.89 1013.64 1013.39 1013.45 1013.50 1012.72 1012.49 1011.45 1010.81 1010.33 1009.71 1008.90 1008.03 1007.22 1006.23 1005.38 1004.70 1003.89 1003.10 1002.27 1001.61 1000.96 1000.35 999.81 999.41 999.15 999.13 999.16 999.56 1000.08 1000.64 1001.16 1001.62 1001.88
1012.19 1012.83 1013.20 1013.49 1013.83 1014.05 1014.07 1014.20 1014.11 1013.85 1013.99 1014.40 1013.99 1013.01 1012.86 1012.41 1011.33 1010.85 1010.07 1009.15 1008.35 1007.46 1006.47 1005.74 1004.88 1003.98 1003.05 1002.07 1001.29 1000.60 999.96 999.11 998.38 997.81 997.62 997.62 997.63 998.13 998.82 999.53 1000.08 1000.58 1000.19
1012.48 1013.07 1013.42 1013.83 1014.13 1014.31 1014.35 1014.41 1014.28 1014.29 1014.39 1013.89 1013.20 1012.59 1012.37 1011.82 1011.35 1010.54 1009.71 1008.86 1007.81 1006.99 1006.28 1005.41 1004.29 1003.24 1002.14 1001.23 1000.45 999.75 998.99 998.09 996.99 996.84 996.73 996.57 996.69 997.28 998.04 998.66 999.31 999.75 999.94
1012.85 1013.26 1013.52 1013.93 1014.19 1014.29 1014.26 1014.42 1014.43 1014.27 1014.13 1013.53 1013.39 1012.79 1012.27 1011.85 1011.09 1010.32 1009.37 1008.43 1007.69 1006.79 1005.81 1004.78 1003.62 1002.41 1001.47 1000.55 999.79 999.08 998.17 996.91 996.22 996.30 996.37 996.48 996.70 997.07 997.52 997.99 998.52 998.95 999.33
1013.06 1013.31 1013.69 1013.98 1014.10 1014.33 1014.54 1014.64 1014.59 1014.43 1014.25 1013.99 1013.54 1013.17 1012.56 1011.84 1011.03 1010.21 1009.55 1008.70 1007.70 1006.62 1005.48 1004.40 1003.27 1002.25 1001.00 1000.00 999.04 998.17 997.28 996.21 996.10 996.22 996.33 996.38 996.61 996.62 996.69 996.99 997.65 998.15 999.25
1013.31 1013.60 1013.71 1014.05 1014.43 1014.73 1014.96 1015.07 1015.08 1014.93 1014.64 1014.40 1013.95 1013.28 1012.68 1011.99 1011.46 1010.71 1009.75 1008.88 1007.76 1006.58 1005.36 1004.15 1002.97 1001.95 1000.94 999.85 998.61 997.82 996.90 996.10 996.05 996.17 996.13 996.05 996.24 996.46 996.78 997.12 997.15 997.99 999.03
1013.69 1013.84 1014.22 1014.69 1015.10 1015.33 1015.47 1015.54 1015.55 1015.44 1015.14 1014.60 1014.11 1013.71 1013.32 1012.72 1011.85 1010.99 1010.12 1009.05 1007.91 1006.74 1005.60 1004.30 1003.06 1002.09 1001.03 1000.03 999.04 997.64 996.71 996.25 996.04 996.13 996.15 996.14 996.20 996.57 996.60 997.02 997.81 998.46 999.31
Wind_Speed
16 14 13 13 12 12 10 9 10 7 8 8 7 6 5 5 4 3 4 4 4 4 3 4 6 6 5 5 5 5 6 6 11 10 7 5 9 8 10 9 9 9 5
16 14 14 12 10 12 11 9 10 10 8 8 7 6 5 5 4 5 4 4 5 4 4 4 8 5 6 5 5 8 8 8 9 15 8 5 6 6 8 9 8 7 4
14 15 12 12 11 10 11 11 10 9 9 7 6 6 6 5 4 5 5 5 4 4 5 7 8 7 8 6 7 8 8 8 9 9 10 4 3 3 5 6 8 8 4
15 15 14 14 13 11 11 11 10 9 9 7 6 6 5 5 5 4 5 4 3 4 6 7 9 9 10 9 8 9 9 9 9 10 10 6 3 3 3 5 7 4 3
14 14 14 13 11 11 11 10 8 8 7 7 7 5 5 5 4 5 3 3 3 6 7 9 9 10 16 13 8 9 9 8 8 8 8 8 4 3 4 2 4 6 3
11 14 14 13 12 13 10 9 9 9 8 7 7 7 6 4 5 1 1 3 4 7 8 9 8 13 13 15 16 19 16 11 11 8 9 9 10 6 5 4 2 4 3
10 10 11 12 13 11 10 10 9 9 6 6 5 5 4 2 3 6 5 4 5 7 9 9 9 8 11 12 13 17 17 18 18 14 12 11 11 9 6 4 4 3 4
8 8 9 9 8 9 9 8 7 6 7 6 5 4 2 3 5 8 8 6 6 9 9 10 10 11 12 12 13 13 13 13 13 11 13 12 11 9 10 8 8 5 4
7 9 10 10 9 9 9 9 5 5 4 4 3 4 3 5 6 7 7 7 8 10 9 11 10 12 14 13 12 13 13 13 10 15 16 16 13 12 9 5 5 5 4
7 6 6 7 10 9 8 8 4 5 5 5 4 3 3 5 5 8 9 6 9 8 8 10 14 15 17 15 13 12 14 13 10 10 9 10 13 12 14 12 9 8 6
8 10 11 9 9 10 8 4 5 5 5 3 1 0 3 3 6 10 11 8 9 8 8 9 10 13 15 15 15 12 15 12 12 10 10 9 9 10 10 9 12 11 9
12 11 8 7 5 5 9 5 6 5 4 2 4 4 5 6 8 9 12 12 12 9 10 10 12 16 15 17 15 19 19 16 10 10 10 10 10 10 10 11 11 12 11
7 7 9 9 6 2 6 5 4 5 3 2 0 3 6 7 6 10 13 14 14 10 10 15 22 24 24 20 22 23 22 11 10 11 11 11 11 10 11 11 12 13 14
4 6 4 6 4 4 5 4 4 4 3 2 3 5 6 7 6 4 6 7 10 11 14 12 15 19 23 21 18 14 10 10 11 11 11 10 9 9 11 11 11 11 10
8 7 5 4 5 4 4 2 4 3 3 3 4 4 5 6 7 8 9 10 9 11 13 10 10 9 10 9 9 10 9 9 10 10 10 10 10 10 11 11 12 10 11
8 5 5 5 4 4 3 3 3 1 2 5 10 8 3 11 15 15 16 21 20 20 9 9 10 9 10 10 10 10 10 12 11 11 11 10 10 11 10 11 11 12 12
8 6 4 5 4 3 1 1 2 1 5 5 5 6 7 13 15 15 18 24 21 14 7 9 9 9 10 11 11 11 12 10 10 10 12 11 10 10 11 11 12 12 11
6 9 5 4 4 3 3 1 3 2 5 7 3 5 9 13 13 19 21 16 9 7 8 8 9 10 11 11 11 11 11 10 10 11 11 11 11 11 10 12 12 14 14
6 5 5 4 4 4 3 2 2 2 3 5 6 5 6 12 17 18 15 7 10 9 9 9 10 11 12 12 12 11 11 11 10 10 10 10 11 11 11 12 12 14 11
6 9 6 4 3 3 1 2 2 3 5 6 6 7 8 8 9 9 9 9 9 8 9 10 11 12 12 12 11 10 10 10 10 11 11 11 10 12 12 13 12 12 14
5 4 5 4 3 1 2 2 3 3 4 5 6 6 8 7 7 9 9 9 9 10 10 11 12 12 11 11 11 10 10 10 11 9 8 9 11 12 12 11 12 12 11
5 4 4 3 2 1 1 2 2 3 4 5 7 7 8 6 7 8 9 9 10 10 10 11 11 11 11 11 11 11 11 12 7 5 6 5 8 9 9 10 11 10 9
5 5 4 3 2 1 3 3 4 4 5 6 6 7 7 7 8 8 10 11 11 11 11 11 12 11 11 10 10 9 10 11 3 3 3 3 5 8 7 9 9 10 9
4 4 4 3 3 4 4 4 4 5 5 6 6 7 8 8 9 11 10 10 11 11 11 11 11 15 13 12 9 8 8 6 2 3 5 6 8 7 6 8 11 12 11
4 4 4 4 5 4 5 5 5 5 5 6 6 7 8 10 10 10 10 10 11 12 14 13 11 15 15 17 16 14 9 4 4 3 3 3 4 7 5 8 9 14 16
5 6 6 5 5 5 5 5 5 5 6 7 7 8 9 9 9 10 10 12 12 12 16 12 15 19 18 13 17 16 7 5 1 6 4 3 5 5 7 13 15 12 14
Wind_Direction
183 176 166 164 168 151 155 160 161 147 156 156 155 157 169 178 175 191 222 234 235 245 247 263 271 266 270 254 237 235 238 230 266 285 281 285 302 311 317 317 316 309 310
172 166 167 159 161 151 147 159 157 164 162 162 158 166 175 190 188 212 233 236 235 265 279 276 273 281 264 256 253 253 252 246 264 280 293 277 282 295 301 309 314 312 302
162 161 151 158 156 158 154 161 167 162 168 157 151 170 191 201 197 220 235 252 254 266 269 265 268 269 272 266 258 267 269 271 258 262 277 270 259 293 306 304 312 300 312
159 157 160 166 167 162 160 167 170 173 159 151 170 181 195 199 211 224 238 252 274 263 259 260 268 272 277 273 269 270 272 271 270 268 277 273 225 264 270 307 318 309 305
154 153 166 165 160 152 165 175 163 155 158 165 162 184 195 199 214 212 223 263 261 267 262 265 268 269 272 267 268 266 266 270 276 285 287 275 243 226 262 272 290 330 300
160 166 163 161 157 164 169 167 155 154 163 161 176 184 192 206 192 244 281 289 275 265 272 272 269 275 275 272 266 264 264 265 268 266 270 273 280 254 242 240 267 314 300
161 162 163 163 164 158 145 150 162 156 139 160 163 164 188 238 314 297 287 269 262 266 265 274 282 279 272 269 264 264 264 259 254 263 263 255 260 262 253 210 220 221 266
138 133 137 133 122 122 136 148 136 145 158 148 148 152 189 261 274 275 279 284 269 264 267 268 272 276 267 271 278 280 274 266 259 259 254 255 254 250 245 244 234 222 225
144 135 129 129 130 147 151 151 135 138 123 130 138 164 219 274 263 284 298 284 278 274 268 266 272 277 276 262 271 272 270 263 253 245 253 252 238 230 235 235 226 209 216
42 66 88 126 148 136 132 127 128 120 133 143 160 176 221 279 305 300 289 292 285 283 275 287 277 270 270 261 264 268 269 270 271 271 264 252 247 244 228 235 247 230 218
99 80 78 78 92 111 108 90 107 106 110 114 113 330 341 299 292 287 291 289 280 287 295 290 279 268 258 258 249 261 262 277 274 266 259 258 250 242 239 222 220 224 214
91 86 75 72 97 123 114 121 117 116 112 80 32 346 305 288 274 281 273 269 276 280 284 279 276 273 259 258 261 263 260 260 260 255 251 246 238 233 226 225 213 216 220
111 140 123 118 131 122 125 128 120 97 70 76 222 285 278 273 269 256 267 270 273 277 272 270 274 275 274 273 266 260 258 250 245 242 242 241 234 232 232 221 216 212 218
112 94 87 107 150 150 122 114 94 111 157 235 260 252 263 279 292 296 284 287 281 276 275 276 270 271 270 267 274 266 247 243 235 236 239 240 235 227 222 217 212 200 204
143 113 130 110 137 115 96 84 110 208 164 199 246 259 278 300 288 270 285 295 291 283 288 277 271 269 270 265 259 255 249 242 239 239 237 233 228 224 222 216 218 201 200
122 129 142 131 106 89 125 166 172 201 17 282 247 231 274 246 270 290 297 289 283 275 267 264 268 266 267 272 273 271 258 251 241 241 234 227 224 221 219 216 216 214 198
128 132 111 114 135 134 121 59 46 333 200 200 279 293 276 274 296 300 296 284 276 269 242 271 272 276 283 287 283 278 277 266 251 238 233 224 219 217 206 213 215 214 203
104 119 123 130 127 111 100 87 55 356 332 329 335 311 290 288 300 286 278 290 289 286 280 283 289 293 295 289 287 283 280 274 260 252 242 223 213 211 207 211 210 214 204
119 129 130 121 109 125 120 95 82 319 329 314 328 317 297 274 268 270 276 284 302 300 303 298 301 298 292 290 286 284 279 273 265 255 246 237 210 204 206 206 207 210 209
115 111 93 104 103 90 84 54 12 356 348 337 327 293 312 315 326 320 317 313 308 305 304 306 304 295 291 289 288 287 283 274 259 244 235 232 218 198 202 199 200 204 206
105 102 103 93 81 63 42 12 346 347 327 293 289 301 290 307 309 314 310 313 313 308 312 306 299 293 293 293 293 289 282 277 268 248 237 240 211 192 193 194 198 202 209
121 127 123 115 117 81 14 310 335 339 318 320 327 330 323 329 314 311 315 313 318 315 305 299 297 301 300 300 297 290 284 277 255 241 239 212 181 181 178 187 193 198 220
121 132 123 113 103 70 43 34 17 5 348 355 339 342 340 327 327 325 325 327 319 312 310 308 311 310 309 304 293 281 275 275 213 202 166 158 167 173 181 186 194 185 203
137 129 119 109 78 65 51 34 24 15 5 356 352 350 345 341 337 337 333 324 320 319 321 321 319 321 321 317 306 294 281 304 162 166 182 223 184 218 178 148 174 172 176
103 116 105 83 81 72 64 52 42 26 15 7 359 358 350 351 341 333 338 330 329 329 329 329 332 334 339 329 328 322 310 281 182 179 212 182 159 149 221 182 141 148 148
132 103 93 91 87 80 72 61 45 29 22 15 10 1 354 342 344 342 345 342 341 340 338 338 342 348 353 347 342 328 344 32 17 188 198 185 156 181 135 130 139 141 147